TimeCET,TemperatureF,Dew PointF,Humidity,Sea Level PressureIn,VisibilityMPH,Wind Direction,Wind SpeedMPH,Gust SpeedMPH,PrecipitationIn,Events,Conditions,WindDirDegrees,DateUTC
12:00 AM,35.6,32.0,87,29.68,6.2,NNW,8.1,-,N/A,Rain-Snow,Light Rain,330,2013-01-10 23:00:00
12:06 AM,33.8,30.2,87,29.68,4.3,NW,5.8,-,N/A,Snow,Light Snow,310,2013-01-10 23:06:00
12:13 AM,33.8,30.2,87,29.68,2.5,WNW,3.5,-,N/A,Snow,Light Snow,290,2013-01-10 23:13:00
12:19 AM,32.0,30.2,93,29.68,1.6,WNW,5.8,-,N/A,Snow,Snow,300,2013-01-10 23:19:00
12:30 AM,32.0,30.2,93,29.68,1.6,NNW,5.8,-,N/A,Snow,Snow,330,2013-01-10 23:30:00
12:34 AM,32.0,30.2,93,29.68,1.4,NNW,4.6,-,N/A,Snow,Snow,340,2013-01-10 23:34:00
1:00 AM,31,30,96,29.76,1,North,6.7,,,Snow,Snow,350,2013-01-11 00:00:00
1:00 AM,32.0,30.2,93,29.68,1.1,NNW,5.8,-,N/A,Snow,Snow,330,2013-01-11 00:00:00
1:17 AM,32.0,30.2,93,29.68,4.3,NW,5.8,-,N/A,Snow,Light Snow,310,2013-01-11 00:17:00
1:30 AM,32.0,30.2,93,29.68,4.3,WNW,5.8,-,N/A,,Overcast,300,2013-01-11 00:30:00
2:00 AM,30.2,30.2,100,29.68,6.2,WNW,4.6,-,N/A,Snow,Light Snow,290,2013-01-11 01:00:00
2:30 AM,30.2,30.2,100,29.68,6.2,NW,5.8,-,N/A,,Overcast,310,2013-01-11 01:30:00
2:44 AM,30.2,30.2,100,29.71,6.2,NW,6.9,-,N/A,,Overcast,310,2013-01-11 01:44:00
3:00 AM,30.2,30.2,100,29.71,6.2,NNW,8.1,-,N/A,,Overcast,330,2013-01-11 02:00:00
3:30 AM,30.2,28.4,93,29.71,6.2,NNW,10.4,-,N/A,,Mostly Cloudy,330,2013-01-11 02:30:00
4:00 AM,30.2,28.4,93,29.71,6.2,NW,15.0,-,N/A,,Mostly Cloudy,310,2013-01-11 03:00:00
4:30 AM,28.4,24.8,86,29.71,6.2,WNW,11.5,-,N/A,,Mostly Cloudy,300,2013-01-11 03:30:00
5:00 AM,28.4,23.0,80,29.71,6.2,WNW,15.0,-,N/A,,Mostly Cloudy,300,2013-01-11 04:00:00
5:30 AM,28.4,23.0,80,29.74,6.2,WNW,13.8,-,N/A,Snow,Light Snow,300,2013-01-11 04:30:00
6:00 AM,28.4,21.2,74,29.74,6.2,West,11.5,-,N/A,,Overcast,280,2013-01-11 05:00:00
6:30 AM,28.4,21.2,74,29.74,6.2,WNW,12.7,-,N/A,,Overcast,300,2013-01-11 05:30:00
7:00 AM,26,20,70,29.84,19,NW,11.2,,,,Partly Cloudy,310,2013-01-11 06:00:00
7:00 AM,26.6,21.2,80,29.77,6.2,WNW,10.4,-,N/A,,Scattered Clouds,290,2013-01-11 06:00:00
7:30 AM,26.6,21.2,80,29.77,6.2,West,6.9,-,N/A,Snow,Light Snow,280,2013-01-11 06:30:00
8:00 AM,26.6,21.2,80,29.77,6.2,WNW,15.0,-,N/A,Snow,Light Snow,290,2013-01-11 07:00:00
8:30 AM,26.6,23.0,86,29.80,6.2,West,11.5,-,N/A,Snow,Light Snow,280,2013-01-11 07:30:00
9:00 AM,26.6,23.0,86,29.80,6.2,West,10.4,-,N/A,Snow,Light Snow,280,2013-01-11 08:00:00
9:12 AM,26.6,23.0,86,29.83,6.2,West,9.2,-,N/A,,Mostly Cloudy,280,2013-01-11 08:12:00
9:30 AM,26.6,23.0,86,29.83,6.2,West,11.5,-,N/A,,Mostly Cloudy,280,2013-01-11 08:30:00
10:00 AM,28.4,23.0,80,29.83,4.3,WNW,16.1,-,N/A,Snow,Light Snow Showers,300,2013-01-11 09:00:00
10:30 AM,28.4,21.2,74,29.86,3.7,WNW,13.8,-,N/A,Snow,Light Snow Showers,300,2013-01-11 09:30:00
10:33 AM,28.4,21.2,74,29.86,3.1,WNW,12.7,-,N/A,Snow,Light Snow Showers,300,2013-01-11 09:33:00
10:45 AM,28.4,21.2,74,29.86,3.7,WNW,12.7,-,N/A,Snow,Light Snow Showers,290,2013-01-11 09:45:00
10:49 AM,28.4,21.2,74,29.86,5.0,WNW,12.7,-,N/A,,Scattered Clouds,290,2013-01-11 09:49:00
11:00 AM,28.4,21.2,74,29.86,6.2,WNW,11.5,-,N/A,,Partly Cloudy,290,2013-01-11 10:00:00
11:11 AM,26.6,21.2,80,29.86,6.2,WNW,10.4,-,N/A,,Partly Cloudy,290,2013-01-11 10:11:00
11:30 AM,28.4,21.2,74,29.86,6.2,West,13.8,-,N/A,,Scattered Clouds,280,2013-01-11 10:30:00
11:36 AM,28.4,21.2,74,29.86,6.2,West,13.8,-,N/A,Snow,Light Snow Showers,280,2013-01-11 10:36:00
11:47 AM,28.4,21.2,74,29.86,6.2,WNW,10.4,-,N/A,,Mostly Cloudy,290,2013-01-11 10:47:00
12:00 PM,28.4,21.2,74,29.86,6.2,WNW,15.0,-,N/A,Snow,Light Snow Showers,290,2013-01-11 11:00:00
12:11 PM,28.4,21.2,74,29.86,6.2,West,13.8,-,N/A,,Mostly Cloudy,280,2013-01-11 11:11:00
12:30 PM,28.4,21.2,74,29.86,6.2,West,15.0,-,N/A,,Mostly Cloudy,280,2013-01-11 11:30:00
12:51 PM,28.4,21.2,74,29.86,6.2,West,12.7,-,N/A,Snow,Light Snow Showers,280,2013-01-11 11:51:00
1:00 PM,29,21,61,29.94,4,West,11.2,,,Snow,Light Snow Showers,280,2013-01-11 12:00:00
1:00 PM,28.4,21.2,74,29.86,4.3,West,12.7,-,N/A,Snow,Light Snow Showers,280,2013-01-11 12:00:00
1:05 PM,28.4,21.2,74,29.86,2.2,WNW,13.8,-,N/A,Snow,Snow Showers,290,2013-01-11 12:05:00
1:20 PM,28.4,23.0,80,29.86,3.4,WNW,12.7,-,N/A,Snow,Light Snow Showers,300,2013-01-11 12:20:00
1:21 PM,28.4,23.0,80,29.86,1.9,WNW,13.8,-,N/A,Snow,Snow Showers,300,2013-01-11 12:21:00
1:30 PM,28.4,23.0,80,29.86,1.6,WNW,15.0,-,N/A,Snow,Snow Showers,290,2013-01-11 12:30:00
1:35 PM,28.4,23.0,80,29.86,2.2,WNW,12.7,-,N/A,Snow,Snow Showers,290,2013-01-11 12:35:00
1:38 PM,28.4,23.0,80,29.86,3.7,WNW,11.5,-,N/A,Snow,Light Snow Showers,290,2013-01-11 12:38:00
1:45 PM,28.4,23.0,80,29.89,3.7,WNW,10.4,-,N/A,Snow,Light Snow Showers,290,2013-01-11 12:45:00
1:49 PM,28.4,23.0,80,29.89,3.1,WNW,11.5,-,N/A,Snow,Light Snow Showers,290,2013-01-11 12:49:00
2:00 PM,28.4,23.0,80,29.89,0.9,WNW,12.7,-,N/A,Snow,Snow Showers,300,2013-01-11 13:00:00
2:04 PM,28.4,24.8,86,29.89,0.8,NW,13.8,-,N/A,Snow,Snow Showers,320,2013-01-11 13:04:00
2:13 PM,26.6,24.8,93,29.89,3.7,NW,11.5,-,N/A,Snow,Light Snow Showers,320,2013-01-11 13:13:00
2:24 PM,28.4,24.8,86,29.89,6.2,NNW,8.1,-,N/A,,Mostly Cloudy,330,2013-01-11 13:24:00
2:30 PM,28.4,24.8,86,29.89,6.2,NNW,8.1,-,N/A,,Mostly Cloudy,330,2013-01-11 13:30:00
2:49 PM,28.4,21.2,74,29.89,6.2,WNW,12.7,-,N/A,Snow,Light Snow Showers,300,2013-01-11 13:49:00
3:00 PM,28.4,21.2,74,29.89,6.2,WNW,13.8,-,N/A,Snow,Light Snow Showers,300,2013-01-11 14:00:00
3:30 PM,26.6,21.2,80,29.92,6.2,NW,17.3,-,N/A,Snow,Light Snow Showers,310,2013-01-11 14:30:00
4:00 PM,28.4,19.4,69,29.92,6.2,NW,16.1,-,N/A,,Mostly Cloudy,310,2013-01-11 15:00:00
4:30 PM,26.6,21.2,80,29.95,2.5,WNW,12.7,-,N/A,Snow,Snow Showers,290,2013-01-11 15:30:00
4:42 PM,26.6,21.2,80,29.95,6.2,WNW,11.5,-,N/A,Snow,Light Snow Showers,290,2013-01-11 15:42:00
5:00 PM,26.6,21.2,80,29.95,6.2,WNW,10.4,-,N/A,,Mostly Cloudy,290,2013-01-11 16:00:00
5:30 PM,26.6,21.2,80,29.95,6.2,West,11.5,-,N/A,,Overcast,270,2013-01-11 16:30:00
6:00 PM,26.6,21.2,80,29.95,6.2,West,10.4,-,N/A,,Mostly Cloudy,270,2013-01-11 17:00:00
6:30 PM,26.6,21.2,80,29.95,6.2,West,9.2,-,N/A,,Mostly Cloudy,260,2013-01-11 17:30:00
7:00 PM,25,19,68,30.05,19,West,8.9,,,,Partly Cloudy,260,2013-01-11 18:00:00
7:00 PM,24.8,19.4,80,29.95,6.2,West,10.4,-,N/A,,Partly Cloudy,260,2013-01-11 18:00:00
7:30 PM,23.0,19.4,86,29.95,6.2,West,6.9,-,N/A,,Partly Cloudy,260,2013-01-11 18:30:00
8:00 PM,24.8,19.4,80,29.98,6.2,WSW,9.2,-,N/A,,Mostly Cloudy,250,2013-01-11 19:00:00
8:30 PM,23.0,17.6,80,29.98,6.2,West,6.9,-,N/A,,Mostly Cloudy,260,2013-01-11 19:30:00
9:00 PM,24.8,19.4,80,29.98,-9999.0,WSW,13.8,-,N/A,,Clear,240,2013-01-11 20:00:00
9:30 PM,24.8,17.6,74,29.98,-9999.0,WSW,13.8,-,N/A,,Clear,240,2013-01-11 20:30:00
10:00 PM,24.8,17.6,74,29.98,6.2,SW,15.0,-,N/A,,Mostly Cloudy,230,2013-01-11 21:00:00
10:30 PM,24.8,19.4,80,29.98,-9999.0,WSW,15.0,-,N/A,,Clear,240,2013-01-11 21:30:00
11:00 PM,24.8,19.4,80,29.98,-9999.0,WSW,13.8,-,N/A,,Clear,250,2013-01-11 22:00:00
11:30 PM,24.8,19.4,80,29.98,-9999.0,WSW,13.8,-,N/A,,Clear,240,2013-01-11 22:30:00